Regional Weather Roundup
Issued by NWS Sioux Falls, SD

Home | Current Version | Previous Version | Graphics & Text | Print | Product List | Glossary On
Versions: 1 2 3 4 5 6 7 8 9 10 11 12 13 14 15 16 17 18 19 20 21 22 23 24 25 26 27 28 29 30 31 32 33 34 35 36 37 38 39 40 41 42 43 44 45 46 47 48 49 50
000
ASUS43 KFSD 290110
RWRFSD

WEATHER ROUNDUP FOR SE SOUTH DAKOTA/SW MINNESOTA/NW IOWA
NATIONAL WEATHER SERVICE SIOUX FALLS SD
800 PM CDT THU JUL 28 2016

NOTE: "FAIR" INDICATES FEW OR NO CLOUDS BELOW 12,000 FEET WITH NO
SIGNIFICANT WEATHER AND OR OBSTRUCTIONS TO VISIBILITY.


SDZ038>040-050-052>070-290200-
SOUTHEAST SOUTH DAKOTA

CITY           SKY/WX    TMP DP  RH WIND       PRES   REMARKS
BROOKINGS      CLOUDY    72  56  57 E8        30.06S
CHAMBERLAIN    PTCLDY    78  60  54 NE5       30.05R
HURON          CLOUDY    76  58  53 E7        30.03S
MADISON        FAIR      68  61  77 NE7       30.06F
MITCHELL       CLOUDY    76  60  57 E9        30.03S
SIOUX FALLS    MOCLDY    71  58  63 NE8       30.04F
WINNER         MOCLDY    70  64  81 SW6       30.07R
YANKTON        CLEAR     75  61  60 NE6       30.01R
$$

MNZ071-072-080-081-089-090-097-098-290200-
SOUTHWEST MINNESOTA

CITY           SKY/WX    TMP DP  RH WIND       PRES   REMARKS
FAIRMONT       MOCLDY    70  63  78 N7        30.01S
JACKSON        CLOUDY    70  61  73 NE9       30.04S
LUVERNE        MOCLDY    70  55  60 NE5       30.05S
MARSHALL       CLEAR     71  58  63 N5        30.05R
MONTEVIDEO     CLEAR     73  59  60 E5        30.06S
REDWOOD FALLS  CLEAR     73  58  59 NE6       30.03S
TRACY          CLEAR     71  60  67 N3        30.05R
WINDOM         CLOUDY    72  61  68 NE6       30.05R
WORTHINGTON    PTCLDY    70  60  70 N8        30.04S
$$

IAZ001>003-012>014-020>022-031-032-NEZ013-014-SDZ071-290200-
NORTHWEST IOWA

CITY           SKY/WX    TMP DP  RH WIND       PRES   REMARKS
CHEROKEE       CLOUDY    74  65  74 NE8       30.01R
DENISON        PTCLDY    73  63  68 NE6       30.00R
ESTHERVILLE    PTCLDY    69  63  81 N8        30.01F
LE MARS        PTCLDY    75  63  64 N6        30.03R
SHELDON        MOCLDY    73  63  68 NE7G14    30.02S
SIOUX CITY     CLOUDY    78  63  59 NE10      30.00R
SPENCER        CLOUDY    72  62  71 NE7       30.02S
STORM LAKE     PTCLDY    72  63  73 NE7       30.03R
$$

ABBREVIATIONS USED IN REMARKS
   TC - TEMPERATURE IN CELSIUS
  WCI - WIND CHILL INDEX
   HX - HEAT INDEX
  VSB - VISIBILITY





USA.gov is the U.S. government's official web portal to all federal, state and local government web resources and services.